540  
ASUS44 KLZK 282210  
RWRLZK  
 
WEATHER ROUNDUP FOR ARKANSAS  
NATIONAL WEATHER SERVICE LITTLE ROCK AR  
400 PM CST SUN FEB 28 2021  
 
NOTE: "FAIR" INDICATES FEW OR NO CLOUDS BELOW 12,000 FEET WITH NO  
SIGNIFICANT WEATHER AND/OR S TO VISIBILITY
.  
 
ARZ001-003-010-029-282300-  
NORTHWEST ARKANSAS  
 
CITY SKY/WX TMP DP RH WIND PRES REMARKS
 
FAYETTEVILLE LGT RAIN 51 49 92 N10 29.90R  
FORT SMITH LGT RAIN 56 54 93 W13 29.86R  
HARRISON LGT RAIN 56 54 93 NW9 29.86F FOG  
BENTONVILLE LGT RAIN 50 39 66 N13 29.94R  
ROGERS LGT RAIN 50 39 66 N12 29.93R  
SILOAM SPGS LGT RAIN 48 41 76 N14 29.93R  
HIGHFILL LGT RAIN 50 39 66 N16 29.91S  
SPRINGDALE CLOUDY 50 50 100 N14G21 29.93R FOG  

 
 
ARZ004-005-016-282300-  
NORTH CENTRAL ARKANSAS  
 
CITY SKY/WX TMP DP RH WIND PRES REMARKS
 
BATESVILLE TSTM 61 60 97 VRB6 29.86R  
FLIPPIN CLOUDY 59 58 96 E5 29.85F  
MTN HOME LGT RAIN 58 55 90 CALM 29.85F  

 
 
ARZ040-041-282300-  
WEST CENTRAL ARKANSAS  
 
CITY SKY/WX TMP DP RH WIND PRES REMARKS
 
MENA CLOUDY 61 61 100 N3 29.87S  
MOUNT IDA CLOUDY 63 60 90 NW3 29.84R  

 
 
ARZ009-017-025-026-028-282300-  
NORTHEAST ARKANSAS  
 
CITY SKY/WX TMP DP RH WIND PRES REMARKS
 
JONESBORO RAIN 63 61 93 SW13 29.83R FOG  
NEWPORT TSTM 61 61 100 NW6 29.84R FOG  
WALNUT RIDGE TSTM 62 60 93 W3 29.85R  
BLYTHEVILLE TSTM 68 64 87 W31 29.82R VSB 3/4  

 
 
ARZ032-043-044-282300-  
LITTLE ROCK METRO AREA  
 
CITY SKY/WX TMP DP RH WIND PRES REMARKS
 
LITTLE ROCK CLOUDY 64 58 80 NW17G31 29.84R  
N LTL ROCK NWS N/A 60 58 94 W3 29.88R  
NLR AIRPORT RAIN 59 57 94 N16 29.84R VSB 1/2  
BENTON MOCLDY 72 68 88 W10 29.83R  
JACKSONVILLE HVY RAIN 61 59 94 NW8 29.83R FOG  
CONWAY CLOUDY 61 61 100 CALM 29.83F FOG  

 
 
ARZ022-023-033-042-282300-  
REMAINDER OF CENTRAL ARKANSAS  
 
CITY SKY/WX TMP DP RH WIND PRES REMARKS
 
SEARCY TSTM 63 61 94 NW12G22 29.84R FOG  
HOT SPRINGS TSTM 62 60 93 VRB7G22 29.85R VSB 3/4  
RUSSELLVILLE CLOUDY 62 60 93 NW5 29.81F  
CLINTON DRIZZLE 59 59 100 CALM 29.84F  

 
 
ARZ036-282300-  
EAST ARKANSAS  
 
CITY SKY/WX TMP DP RH WIND PRES REMARKS
 
WEST MEMPHIS CLOUDY 71 66 84 S15 29.81F  

 
 
ARZ050-053-066-070-073-282300-  
SOUTHWEST ARKANSAS  
 
CITY SKY/WX TMP DP RH WIND PRES REMARKS
 
ARKADELPHIA CLOUDY 74 66 76 S8 29.81F  
TEXARKANA CLOUDY 75 65 70 SW13 29.82F  
EL DORADO LGT RAIN 74 66 76 S13 29.85F  
DE QUEEN LGT RAIN 67 64 90 CALM 29.81S  

 
 
ARZ056-057-069-282300-  
SOUTHEAST ARKANSAS  
 
CITY SKY/WX TMP DP RH WIND PRES REMARKS
 
PINE BLUFF LGT RAIN 74 65 73 SW10 29.83F  
STUTTGART CLOUDY 74 69 85 S21 29.82F  
MONTICELLO PTSUNNY 76 67 73 S7 29.84F  
 

 
 
 
 
CLICK HERE TO GO TO PREVIOUS BULLETINS.

The Nexlab AR Page Main Text Page